Regional Weather Roundup
Issued by NWS

Home | Current Version | Previous Version | Graphics & Text | Print | Product List | Glossary On
Versions: 1 2 3 4 5 6 7 8 9 10 11 12 13 14 15 16 17 18 19 20 21 22 23 24 25 26 27 28 29 30 31 32 33 34 35 36 37 38 39 40 41 42 43 44 45 46 47 48 49 50
723
ASUS43 KLMK 270902
RWRKY
KENTUCKY REGIONAL WEATHER ROUNDUP
NATIONAL WEATHER SERVICE LOUISVILLE KY
500 AM EDT SUN MAY 27 2018

NOTE "FAIR" INDICATES FEW OR NO CLOUDS BELOW 12,000 FEET
WITH NO SIGNIFICANT WEATHER AND/OR OBSTRUCTIONS TO VISIBILITY.

KYZ001>023-026-027-061>063-070>075-271000-
WESTERN AND SOUTH CENTRAL KENTUCKY

CITY           SKY/WX    TMP DP  RH WIND       PRES   REMARKS
PADUCAH        FAIR      74  70  87 SW3       29.86S
HENDERSON      FAIR      71  69  93 CALM      29.88R
OWENSBORO      FAIR      72  70  93 S5        29.88S
HOPKINSVILLE   FAIR      71  71 100 CALM      29.89R
BOWLING GREEN  FAIR      68  68 100 CALM      29.91R
GLASGOW        NOT AVBL
$$

KYZ024-025-028>034-038-045-046-053-271000-
NORTH CENTRAL KENTUCKY

CITY           SKY/WX    TMP DP  RH WIND       PRES   REMARKS
LOUISVILLE/SDF TSTM      71  65  81 N13       29.89F
LOUISVILLE/LOU FAIR      70  65  84 W5        29.90S THUNDER
FORT KNOX      FAIR      68  68 100 CALM      29.90S
$$

KYZ035>037-039>044-047>052-055>060-089>105-271000-
NORTHEAST KENTUCKY

CITY           SKY/WX    TMP DP  RH WIND       PRES   REMARKS
LEXINGTON      FAIR      70  66  87 CALM      29.91S
COVINGTON      FAIR      68  66  93 SW3       29.87S
FRANKFORT      MOCLDY    70  66  87 W6        29.89S
$$

KYZ054-064>069-076>088-106>120-271000-
SOUTHEAST KENTUCKY

CITY           SKY/WX    TMP DP  RH WIND       PRES   REMARKS
JACKSON        FAIR      69  65  86 CALM      29.94R
LONDON         FAIR      67  67 100 CALM      29.94R FOG
SOMERSET       NOT AVBL
MIDDLESBORO    LGT RAIN  68  68 100 CALM      29.97R
MONTICELLO     NOT AVBL
$$





USA.gov is the U.S. government's official web portal to all federal, state and local government web resources and services.